Location: Newark
(39.9500°N, 8.6833°E)
Time: 10:30:18
(UTC+00:00)

NO-84 - Pass Details

Date: 28 February 2020
Orbit: 328 x 491 km, 55.0° (Epoch: 01 April)

Event Time Altitude Azimuth Distance (km) Brightness Sun altitude
Exits shadow 04:57:55 21° 287° (WNW) 1,125 ? -12.9°
Maximum altitude 04:59:55 38° 230° (SW) 718 ? -12.5°
Drops below altitude 10° 05:03:15 10° 161° (SSE) 1,572 ? -11.9°
Sets 05:05:23 0° 153° (SSE) 2,408 ? -11.5°
